"TOA5","AWS1","CR1000","7964","CR1000.Std.14","CPU:AWS1_114.CR1","64363","TBL110"
"TIMESTAMP","RECORD","Wind_spd_WVc(1)","Wind_spd_WVc(2)","Air_Temp_Avg","Humidity_Avg","SW_upper_Wm2_Avg","Rain_Tot","Press_Avg","Issui_Tot","Depth_cm","SR50A_Raw","Quality","Ground_Temp_Avg(1)","Ground_Temp_Avg(2)","SW_lower_Wm2_Avg","Albedo_Avg","SWC_per(1)","SWC_per(2)","Period(1)","Period(2)"
"TS","RN","","","","","","","","","","","","","","","","","","",""
"","","WVc","WVc","Avg","Avg","Avg","Tot","Avg","Tot","Smp","Smp","Smp","Avg","Avg","Avg","Avg","Smp","Smp","Smp","Smp"
"2016-10-19 00:00:00",258109,0,0,11.45,100,0,0,870.4374,0,-0.947,3.124,201,13.82,14.03,0.2917954,0,51.16,59.08,33.58,35.47
"2016-10-19 00:10:00",258110,0,0,11.55,100,0,0,870.3995,0,-1.025,3.125,201,13.8,14.04,0.2614787,0,51.16,59.03,33.58,35.45
"2016-10-19 00:20:00",258111,0,0,11.67,100,0,0,870.3511,0,-1.068,3.124,202,13.8,14.06,0.3600067,0,51.16,59.08,33.58,35.47
"2016-10-19 00:30:00",258112,0,0,11.88,100,0,0,870.4059,0,-1.141,3.124,202,13.82,14.05,0.4471663,0,51.16,59.03,33.58,35.45
"2016-10-19 00:40:00",258113,0,0,11.87,100,0,0,870.4269,0,-1.17,3.125,202,13.82,14.05,0.1098968,0,51.16,59.08,33.58,35.47
"2016-10-19 00:50:00",258114,0,0,11.71,100,0,0,870.4227,0,-0.995,3.124,203,13.83,14.05,0,0,51.16,59.08,33.58,35.47
"2016-10-19 01:00:00",258115,0,0,11.65,100,0,0,870.4016,0,-0.791,3.122,202,13.77,14.04,0,0,51.16,59.03,33.58,35.45
"2016-10-19 01:10:00",258116,0.02,70.74,11.71,100,0,0,870.2332,0,-0.743,3.122,207,13.78,14.05,0.2046354,0,51.16,59.08,33.58,35.47
"2016-10-19 01:20:00",258117,0.085,41.06,11.66,100,0,0,870.2963,0,-0.868,3.123,202,13.79,14.05,0.2387413,0,51.16,59.03,33.58,35.45
"2016-10-19 01:30:00",258118,0.108,130,11.41,100,0,0,870.2184,0,-1.087,3.128,204,13.75,14.06,0,0,51.1,59.03,33.57,35.45
"2016-10-19 01:40:00",258119,0.258,137.5,10.92,100,0,0,870.1636,0,-0.738,3.126,205,13.71,14.06,0,0,51.16,59.03,33.58,35.45
"2016-10-19 01:50:00",258120,0.278,184.1,10.8,100,0,0,869.9993,0,-0.15,3.12,216,13.72,14.06,0.07958043,0,51.16,59.03,33.58,35.45
"2016-10-19 02:00:00",258121,0.236,173.2,10.8,100,0,0,869.9383,0,-0.408,3.123,205,13.71,14.06,0.3296912,0,51.1,59.03,33.57,35.45
"2016-10-19 02:10:00",258122,0.227,235.7,10.87,100,0,0,869.934,0,-0.065,3.116,204,13.68,14.06,0.7465748,0,51.1,59.03,33.57,35.45
"2016-10-19 02:20:00",258123,0.018,310.4,11.55,100,0,0,869.934,0,-1.141,3.127,222,13.69,14.06,1.083872,0,51.1,59.03,33.57,35.45
"2016-10-19 02:30:00",258124,0.179,217.3,10.87,100,0,0,869.934,0,-0.277,3.122,217,13.71,14.08,0.03789844,0,51.1,59.03,33.57,35.45
"2016-10-19 02:40:00",258125,0.213,207.1,10.93,100,0,0,869.9446,0,-0.486,3.123,212,13.75,14.1,0.6594929,0,51.1,59.03,33.57,35.45
"2016-10-19 02:50:00",258126,0.117,183.3,10.91,100,0,0,869.9993,0,-0.571,3.125,205,13.77,14.11,0.5685518,0,51.1,58.97,33.57,35.44
"2016-10-19 03:00:00",258127,0.342,176.5,10.46,100,0,0,869.934,0,-0.264,3.122,205,13.77,14.12,0.1705658,0,51.1,58.97,33.57,35.44
"2016-10-19 03:10:00",258128,0.102,299.2,11.19,100,0,0,869.934,0,-0.901,3.127,210,13.67,14.11,1.349386,0,51.1,58.97,33.57,35.44
"2016-10-19 03:20:00",258129,0.251,185.3,10.71,100,0,0,869.9193,0,-1.068,3.13,205,13.66,14.12,0.09097527,0,51.16,58.97,33.58,35.44
"2016-10-19 03:30:00",258130,0.337,180.3,10.85,100,0,0,869.6834,0,-1.114,3.129,214,13.67,14.14,0.7012827,0,51.1,58.97,33.57,35.44
"2016-10-19 03:40:00",258131,0.163,195.9,11.07,100,0,0,869.6855,0,-1.223,3.128,207,13.67,14.13,0.9931401,0,51.1,58.97,33.57,35.44
"2016-10-19 03:50:00",258132,0.148,155.9,11.03,100,0,0,869.6813,0,-1.006,3.129,211,13.69,14.14,0.5723645,0,51.1,58.97,33.57,35.44
"2016-10-19 04:00:00",258133,0.401,195.5,10.88,100,0,0,869.6813,0,-0.902,3.127,212,13.7,14.12,0.4889682,0,51.1,58.97,33.57,35.44
"2016-10-19 04:10:00",258134,0.191,201.7,10.95,100,0,0,869.696,0,-1.159,3.129,208,13.61,14.12,0.6444031,0,51.1,58.97,33.57,35.44
"2016-10-19 04:20:00",258135,0.196,168.9,10.89,100,0,0,869.8561,0,-1.348,3.133,220,13.58,14.12,0.466248,0,51.1,58.91,33.57,35.43
"2016-10-19 04:30:00",258136,0.201,179.2,11.06,100,0,0,869.9235,0,-1.881,3.133,209,13.57,14.14,0.9817604,0,51.1,58.91,33.57,35.43
"2016-10-19 04:40:00",258137,0.026,84,11.87,100,0,0,869.934,0,-2.788,3.14,200,13.56,14.13,1.478284,0,51.05,58.91,33.56,35.43
"2016-10-19 04:50:00",258138,0,0,11.2,99,0,0,869.9319,0,-1.325,3.13,224,13.58,14.13,0.1971035,0,51.1,58.91,33.57,35.43
"2016-10-19 05:00:00",258139,0,0,11.63,100,0,0,869.9214,0,-2.72,3.141,205,13.6,14.09,1.368343,0,51.1,58.91,33.57,35.43
"2016-10-19 05:10:00",258140,0.082,150.1,11.4,100,0,0,869.934,0,-1.584,3.133,221,13.57,14.08,0.4396969,0,51.1,58.91,33.57,35.43
"2016-10-19 05:20:00",258141,0.224,180.6,11.06,100,0,0,870.0246,0,-1.57,3.132,218,13.52,14.08,0.07201387,0,51.1,58.91,33.57,35.43
"2016-10-19 05:30:00",258142,0.146,170.2,11.47,100,0.1179256,0,870.1573,0,-1.325,3.128,206,13.5,14.06,0.7049596,0.659,51.1,58.91,33.57,35.43
"2016-10-19 05:40:00",258143,0.136,162,11.55,100,0.2004656,0,870.1826,0,-1.217,3.126,204,13.49,14.03,0.2728772,0.321,51.05,58.91,33.56,35.43
"2016-10-19 05:50:00",258144,0.229,91.6,12.13,100,0.2594204,0,870.1489,0,-1.009,3.12,202,13.45,14.05,0.989159,1.454,51.1,58.91,33.57,35.43
"2016-10-19 06:00:00",258145,0.293,156.8,12.07,99.7,0.1100546,0,869.9404,0,-1.242,3.124,202,13.45,14.06,0.3410743,0.38,51.1,58.85,33.57,35.41
"2016-10-19 06:10:00",258146,0.161,74.12,12.43,99.6,1.521039,0,869.953,0,-1.404,3.123,221,13.45,14.05,1.125511,0.739,51.1,58.91,33.57,35.43
"2016-10-19 06:20:00",258147,0.063,147.6,12.15,98,4.342986,0,869.9362,0,-1.813,3.132,205,13.39,14.02,0.9170743,0.236,51.05,58.91,33.56,35.43
"2016-10-19 06:30:00",258148,0.217,187.3,11.69,100,12.62409,0,869.934,0,-1.831,3.131,204,13.36,14.01,2.09941,0.163,51.05,58.85,33.56,35.41
"2016-10-19 06:40:00",258149,0.126,138,11.89,100,22.90571,0,869.9572,0,-1.958,3.132,208,13.35,13.99,3.501539,0.152,51.05,58.85,33.56,35.41
"2016-10-19 06:50:00",258150,0.108,92.2,12.05,100,22.29259,0,870.1194,0,-1.467,3.126,219,13.33,13.98,3.255219,0.144,51.05,58.85,33.56,35.41
"2016-10-19 07:00:00",258151,0.008,89.8,11.99,100,40.72564,0,870.1868,0,-2.411,3.135,197,13.32,13.98,5.555472,0.137,51.05,58.85,33.56,35.41
"2016-10-19 07:10:00",258152,0.033,89.4,12.49,99.7,63.06538,0,870.1868,0,-1.601,3.124,203,13.32,13.98,8.806901,0.14,51.05,58.85,33.56,35.41
"2016-10-19 07:20:00",258153,0.148,96.1,12.83,99.1,72.34086,0,870.1868,0,-2.054,3.127,201,13.32,13.98,10.81157,0.151,51.05,58.85,33.56,35.41
"2016-10-19 07:30:00",258154,0.2,140.7,13.08,100,59.11152,0,870.1594,0,-2.044,3.125,211,13.32,13.99,12.88824,0.218,51.05,58.85,33.56,35.41
"2016-10-19 07:40:00",258155,0.035,356.3,13.84,93.1,103.3351,0,870.1762,0,-1.786,3.118,208,13.31,13.99,22.69937,0.221,51.05,58.85,33.56,35.41
"2016-10-19 07:50:00",258156,0.255,12.8,13.97,86.8,109.3406,0,870.1868,0,-1.49,3.117,203,13.29,14,17.78054,0.159,51.05,58.85,33.56,35.41
"2016-10-19 08:00:00",258157,0.384,357.3,13.94,86.9,106.6483,0,870.1868,0,-1.074,3.112,209,13.3,13.99,21.0926,0.196,51.05,58.85,33.56,35.41
"2016-10-19 08:10:00",258158,0.151,0.744,14,86.8,134.1093,0,870.1973,0,-1.69,3.118,199,13.3,13.98,19.4631,0.155,51.05,58.79,33.56,35.4
"2016-10-19 08:20:00",258159,0.189,43.45,14.2,86.5,144.8036,0,870.2668,0,-1.876,3.117,204,13.29,13.98,25.21942,0.172,51.05,58.79,33.56,35.4
"2016-10-19 08:30:00",258160,0.133,360,14.83,84.7,144.8822,0,870.3532,0,1.271,3.084,279,13.28,14,31.26374,0.217,51.1,58.79,33.57,35.4
"2016-10-19 08:40:00",258161,0.664,119.6,15.25,82.9,118.7497,0,870.2879,0,-2.153,3.115,195,13.3,14,27.28851,0.231,51.05,58.79,33.56,35.4
"2016-10-19 08:50:00",258162,0.65,125.9,15.37,81.1,62.60947,0,870.1931,0,-2.043,3.113,196,13.31,14.01,18.34518,0.292,50.99,58.79,33.54,35.4
"2016-10-19 09:00:00",258163,0.572,120.8,15.6,78.75,68.32018,0,870.1868,0,-2.256,3.116,186,13.34,14.01,17.32959,0.259,51.05,58.79,33.56,35.4
"2016-10-19 09:10:00",258164,0.504,123.4,15.21,78.7,77.7568,0,870.1025,0,-0.715,3.101,203,13.35,13.96,17.17801,0.231,51.05,58.79,33.56,35.4
"2016-10-19 09:20:00",258165,0.886,129.2,15.72,77.61,87.48032,0,869.9424,0,-0.961,3.102,206,13.3,13.95,24.17729,0.28,51.05,58.79,33.56,35.4
"2016-10-19 09:30:00",258166,1.068,138.8,15.87,76.87,73.80686,0,869.934,0,-0.899,3.1,188,13.29,13.96,21.06608,0.294,51.05,58.79,33.56,35.4
"2016-10-19 09:40:00",258167,0.958,137.4,15.95,76.13,93.94172,0,869.8624,0,-0.727,3.096,195,13.32,13.91,23.15791,0.253,50.99,58.79,33.54,35.4
"2016-10-19 09:50:00",258168,0.985,137.1,16.21,73.98,96.96018,0,869.7382,0,-1.242,3.101,203,13.43,13.89,25.93564,0.27,51.05,58.85,33.56,35.41
"2016-10-19 10:00:00",258169,0.613,126.4,15.72,75.44,88.41966,0,869.7003,0,-1.126,3.105,194,13.45,13.92,12.83519,0.139,51.05,58.79,33.56,35.4
"2016-10-19 10:10:00",258170,0.294,42.18,15.8,77.66,114.9727,0,869.6813,0,-1.643,3.107,192,13.43,13.92,27.23545,0.245,50.99,58.73,33.54,35.39
"2016-10-19 10:20:00",258171,0.661,131.1,16.71,75.58,183.175,0,869.6624,0,-1.64,3.103,198,13.39,13.91,41.76836,0.226,51.05,58.73,33.56,35.39
"2016-10-19 10:30:00",258172,0.498,91.5,16.78,74.13,179.2879,0,869.5275,0,-0.855,3.094,216,13.41,13.9,31.84733,0.177,50.99,58.79,33.54,35.4
"2016-10-19 10:40:00",258173,0.635,54.71,16.89,74.23,169.9417,0,869.4454,0,-0.958,3.095,202,13.44,13.9,41.83657,0.245,50.99,58.79,33.54,35.4
"2016-10-19 10:50:00",258174,0.554,327.9,16.72,74.83,210.1407,0,869.4265,0,-1.536,3.102,213,13.41,13.91,51.31422,0.247,50.99,58.73,33.54,35.39
"2016-10-19 11:00:00",258175,0.494,311.1,16.59,76.24,269.5076,0,869.2885,0,-1.496,3.103,192,13.44,13.9,60.78808,0.227,50.99,58.73,33.54,35.39
"2016-10-19 11:10:00",258176,0.58,333.7,16.77,75.15,257.0879,0,869.1351,0,-1.585,3.102,193,13.47,13.89,71.85734,0.281,50.99,58.73,33.54,35.39
"2016-10-19 11:20:00",258177,0.305,318.9,16.82,74.66,255.6023,0,868.8897,0,-1.086,3.096,200,13.48,13.89,66.04797,0.25,50.99,58.73,33.54,35.39
"2016-10-19 11:30:00",258178,0.544,347.5,17.15,70.84,834.976,0,868.8671,0,-1.187,3.095,193,13.49,13.88,97.45237,0.118,50.99,58.73,33.54,35.39
"2016-10-19 11:40:00",258179,0.451,329.9,16.99,72.2,425.0519,0,868.7027,0,-1.571,3.103,195,13.51,13.86,49.43805,0.098,50.99,58.73,33.54,35.39
"2016-10-19 11:50:00",258180,0.542,329.7,16.56,73.3,644.6298,0,868.5872,0,-0.876,3.094,199,13.52,13.84,95.10507,0.14,50.94,58.73,33.53,35.39
"2016-10-19 12:00:00",258181,0.596,317.6,16.98,69.67,711.8651,0,868.4021,0,-0.951,3.095,197,13.54,13.83,108.0796,0.146,50.94,58.73,33.53,35.39
"2016-10-19 12:10:00",258182,0.539,327.8,17.31,65.94,719.0047,0,868.3119,0,-2.518,3.11,198,13.57,13.82,111.2647,0.151,50.94,58.73,33.53,35.39
"2016-10-19 12:20:00",258183,0.597,29.06,17.67,62.3,737.3801,0,868.0963,0,-1.404,3.096,198,13.59,13.8,120.3156,0.159,50.94,58.73,33.53,35.39
"2016-10-19 12:30:00",258184,0.57,319.8,17.51,62.24,837.5902,0,867.9655,0,-3.173,3.116,189,13.62,13.78,137.7413,0.164,50.94,58.73,33.53,35.39
"2016-10-19 12:40:00",258185,0.325,321.6,17.5,63.21,621.3666,0,867.8202,0,-2.965,3.111,190,13.61,13.76,99.22819,0.138,50.94,58.73,33.53,35.39
"2016-10-19 12:50:00",258186,0.428,22.49,17.77,61.78,631.6186,0,867.6475,0,-1.932,3.101,197,13.59,13.78,99.27197,0.148,50.94,58.73,33.53,35.39
"2016-10-19 13:00:00",258187,0.612,107,18.02,61.86,757.42,0,867.4686,0,-3.53,3.113,188,13.57,13.79,120.1674,0.159,50.94,58.73,33.53,35.39
"2016-10-19 13:10:00",258188,0.276,22.24,18.24,61.12,715.3593,0,867.3191,0,-1.679,3.096,217,13.67,13.76,104.8475,0.147,50.94,58.67,33.53,35.37
"2016-10-19 13:20:00",258189,0.461,329.8,17.92,61.6,686.6227,0,867.3148,0,-1.9,3.1,201,13.67,13.76,90.37254,0.129,50.94,58.67,33.53,35.37
"2016-10-19 13:30:00",258190,0.175,108.8,17.64,64.31,357.3379,0,867.3106,0,-3.126,3.113,195,13.67,13.77,37.65188,0.09,50.94,58.67,33.53,35.37
"2016-10-19 13:40:00",258191,0.424,12.41,17.17,66.46,306.9496,0,867.3085,0,-0.927,3.094,206,13.68,13.8,26.84051,0.085,50.88,58.67,33.52,35.37
"2016-10-19 13:50:00",258192,0.436,29.14,17.15,64.32,326.5266,0,867.2812,0,-3.259,3.117,184,13.73,13.81,27.45867,0.099,50.88,58.61,33.52,35.36
"2016-10-19 14:00:00",258193,0.398,44.44,17.18,65.82,161.8287,0,867.298,0,-2.518,3.11,194,13.81,13.82,24.91385,0.154,50.88,58.67,33.52,35.37
"2016-10-19 14:10:00",258194,0.472,314.4,17.03,66.67,148.2236,0,867.1007,0,-0.438,3.09,202,13.8,13.82,22.42188,0.151,50.88,58.61,33.52,35.36
"2016-10-19 14:20:00",258195,0.32,31.36,16.98,64.56,88.2288,0,867.078,0,-2.194,3.106,198,13.79,13.81,11.70028,0.132,50.88,58.61,33.52,35.36
"2016-10-19 14:30:00",258196,0.323,4.991,17.06,63.2,100.7437,0,867.2389,0,-2.598,3.111,190,13.89,13.82,14.44063,0.143,50.83,58.61,33.5,35.36
"2016-10-19 14:40:00",258197,0.358,291,16.76,67.8,57.01801,0,867.371,0,-3.187,3.119,190,13.95,13.87,6.479817,0.11,50.83,58.61,33.5,35.36
"2016-10-19 14:50:00",258198,0.354,294.5,16.4,68.2,50.45229,0,867.387,0,-2.689,3.116,193,13.97,13.88,5.157486,0.102,50.88,58.61,33.52,35.36
"2016-10-19 15:00:00",258199,0.328,48.86,16.09,65.57,75.25281,0,867.4332,0,-2.86,3.12,186,13.97,13.89,9.003911,0.118,50.83,58.61,33.5,35.36
"2016-10-19 15:10:00",258200,0.244,37.31,15.81,65.87,91.78773,0,867.546,0,-2.758,3.119,194,14.02,13.89,12.14926,0.132,50.83,58.61,33.5,35.36
"2016-10-19 15:20:00",258201,0.353,47.15,15.73,67.77,100.6663,0,867.6357,0,-2.661,3.119,194,14.09,13.89,14.11225,0.14,50.83,58.56,33.5,35.35
"2016-10-19 15:30:00",258202,0.076,17.2,15.47,70.13,91.94112,0,867.6824,0,-2.716,3.12,190,14.07,13.89,12.33117,0.134,50.83,58.56,33.5,35.35
"2016-10-19 15:40:00",258203,0.276,63.72,15.56,69.69,80.48434,0,867.6635,0,-2.565,3.119,181,14.06,13.89,10.69409,0.133,50.83,58.61,33.5,35.36
"2016-10-19 15:50:00",258204,0.129,59.79,15.49,70.2,66.26065,0,867.6783,0,-2.485,3.118,196,14.12,13.89,8.234674,0.124,50.77,58.56,33.49,35.35
"2016-10-19 16:00:00",258205,0.066,126.4,15.25,73.98,49.72987,0,867.6656,0,-2.214,3.117,196,14.15,13.89,5.585783,0.111,50.77,58.56,33.49,35.35
"2016-10-19 16:10:00",258206,0.29,140.7,14.97,75.05,37.13725,0,867.6804,0,-2.172,3.118,192,14.15,13.89,4.077546,0.11,50.77,58.56,33.49,35.35
"2016-10-19 16:20:00",258207,0.366,129.4,14.75,76.75,32.70389,0,867.9057,0,-2.028,3.118,190,14.15,13.89,3.861542,0.118,50.83,58.56,33.5,35.35
"2016-10-19 16:30:00",258208,0.322,150.8,14.61,77.56,28.07009,0,867.9079,0,-1.9,3.117,181,14.19,13.89,3.539431,0.125,50.77,58.56,33.49,35.35
"2016-10-19 16:40:00",258209,0.462,146.2,14.48,78.26,21.49079,0,867.91,0,-1.979,3.118,179,14.19,13.91,2.910367,0.135,50.77,58.56,33.49,35.35
"2016-10-19 16:50:00",258210,0.334,147.5,14.44,78.53,13.94464,0,867.91,0,-1.78,3.117,191,14.19,13.94,2.000878,0.142,50.77,58.56,33.49,35.35
"2016-10-19 17:00:00",258211,0.332,157.2,14.37,78.36,8.587668,0,867.8868,0,-1.726,3.116,191,14.19,13.98,1.515816,0.177,50.77,58.5,33.49,35.33
"2016-10-19 17:10:00",258212,0.461,141,14.52,74.48,2.566475,0,867.9121,0,-1.804,3.117,192,14.19,13.98,0.4964299,0.176,50.77,58.5,33.49,35.33
"2016-10-19 17:20:00",258213,0.586,143.7,14.29,74.21,0.003930284,0,867.9121,0,-1.629,3.116,188,14.21,13.97,0,0,50.77,58.56,33.49,35.35
"2016-10-19 17:30:00",258214,0.524,149.8,14.14,74.52,0,0,867.9268,0,-1.532,3.116,197,14.22,13.97,0,0,50.72,58.5,33.47,35.33
"2016-10-19 17:40:00",258215,0.559,146.3,14.07,74.54,0,0,868.1606,0,-1.611,3.117,184,14.22,13.97,0,0,50.72,58.5,33.47,35.33
"2016-10-19 17:50:00",258216,0.577,147.2,13.92,75.75,0,0,868.1649,0,-1.484,3.116,188,14.25,13.97,0,0,50.77,58.5,33.49,35.33
"2016-10-19 18:00:00",258217,0.571,148.7,13.84,76.07,0,0,868.1649,0,-1.598,3.119,192,14.26,13.97,0,0,50.77,58.5,33.49,35.33
"2016-10-19 18:10:00",258218,0.635,151.6,13.67,77.03,0,0,868.1606,0,-1.7,3.12,195,14.27,13.98,0,0,50.72,58.5,33.47,35.33
"2016-10-19 18:20:00",258219,0.479,151.9,13.57,77.3,0,0,868.1943,0,-1.755,3.121,193,14.25,13.98,0,0,50.72,58.5,33.47,35.33
"2016-10-19 18:30:00",258220,0.441,134.1,13.52,77.85,0,0,868.3544,0,-1.809,3.122,190,14.26,13.98,0,0,50.77,58.44,33.49,35.32
"2016-10-19 18:40:00",258221,0.31,145.8,13.54,77.85,0,0,868.367,0,-1.917,3.124,197,14.25,13.99,0.003789541,0,50.72,58.44,33.47,35.32
"2016-10-19 18:50:00",258222,0.157,141.8,13.14,80.2,0,0,868.4176,0,-2.145,3.126,173,14.21,14.03,0,0,50.72,58.5,33.47,35.33
"2016-10-19 19:00:00",258223,0.19,144.2,13.14,80.3,0,0,868.3207,0,-2.073,3.126,187,14.23,14.06,0.0189477,0,50.77,58.44,33.49,35.32
"2016-10-19 19:10:00",258224,0.35,119.2,13.13,81.1,0,0,868.2175,0,-2,3.126,192,14.23,14.06,0.1326339,0,50.72,58.44,33.47,35.32
"2016-10-19 19:20:00",258225,0.445,133.8,13.11,81.2,0,0,868.1649,0,-2.073,3.126,196,14.2,14.07,0.1136862,0,50.72,58.5,33.47,35.33
"2016-10-19 19:30:00",258226,0.585,137,13.39,81.3,0,0,868.1649,0,-2.297,3.127,197,14.16,14.07,0.3448482,0,50.72,58.44,33.47,35.32
"2016-10-19 19:40:00",258227,0.223,123.9,13.3,82.6,0,0,868.1649,0,-2.483,3.13,198,14.15,14.08,0,0,50.72,58.5,33.47,35.33
"2016-10-19 19:50:00",258228,0.277,119.6,13.26,83.4,0,0,868.1649,0,-2.531,3.13,197,14.15,14.08,0.01136862,0,50.72,58.44,33.47,35.32
"2016-10-19 20:00:00",258229,0.263,10.31,13.27,84.2,0,0,868.1649,0,-2.531,3.13,184,14.19,14.08,0.04926403,0,50.72,58.44,33.47,35.32
"2016-10-19 20:10:00",258230,0.188,46.41,13.37,84.4,0,0,868.1649,0,-2.658,3.131,193,14.19,14.06,0.2766365,0,50.72,58.44,33.47,35.32
"2016-10-19 20:20:00",258231,0.304,50.66,13.39,86,0,0,868.1943,0,-3.652,3.14,195,14.19,14.07,0.4016913,0,50.72,58.44,33.47,35.32
"2016-10-19 20:30:00",258232,0.257,91.5,13.22,87.7,0,0,868.405,0,-3.38,3.139,195,14.19,14.07,0.007579082,0,50.72,58.38,33.47,35.31
"2016-10-19 20:40:00",258233,0.159,108.6,13.18,88.3,0,0,868.4176,0,-3.56,3.141,195,14.17,14.07,0,0,50.66,58.44,33.46,35.32
"2016-10-19 20:50:00",258234,0.164,128.3,13.15,89.1,0,0,868.4176,0,-3.716,3.143,186,14.14,14.07,0.02652679,0,50.72,58.44,33.47,35.32
"2016-10-19 21:00:00",258235,0.113,75.49,12.95,89.7,0,0,868.4176,0,-3.517,3.142,190,14.15,14.11,0,0,50.72,58.44,33.47,35.32
"2016-10-19 21:10:00",258236,0.144,115.9,12.83,91,0,0,868.4155,0,-3.697,3.144,181,14.15,14.13,0,0,50.66,58.44,33.46,35.32
"2016-10-19 21:20:00",258237,0.348,94.2,12.98,91.6,0.007860567,0,868.4176,0,-3.458,3.14,186,14.12,14.14,0.2690574,0.064,50.66,58.44,33.46,35.32
"2016-10-19 21:30:00",258238,0.178,105.3,13.21,91.1,0,0,868.4176,0,-3.351,3.138,196,14.07,14.15,0.4547449,0,50.72,58.38,33.47,35.31
"2016-10-19 21:40:00",258239,0.168,30.74,13.34,90.1,0,0,868.4176,0,-3.502,3.139,196,14.06,14.15,0.4547449,0,50.66,58.38,33.46,35.31
"2016-10-19 21:50:00",258240,0.318,47.07,13.34,90,0,0,868.4176,0,-3.453,3.139,192,14.07,14.14,0.1326339,0,50.72,58.38,33.47,35.31
"2016-10-19 22:00:00",258241,0.011,62.29,13.32,90.3,0,0,868.3059,0,-3.633,3.141,181,14.07,14.15,0,0,50.72,58.38,33.47,35.31
"2016-10-19 22:10:00",258242,0.281,126.3,13.12,91.5,0,0,868.1649,0,-3.945,3.145,195,14.06,14.15,0,0,50.66,58.38,33.46,35.31
"2016-10-19 22:20:00",258243,0.294,141.3,13.09,91.7,0,0,868.1501,0,-3.819,3.144,195,14.04,14.15,0,0,50.66,58.38,33.46,35.31
"2016-10-19 22:30:00",258244,0.218,114.4,12.99,91.7,0,0,868.1248,0,-3.102,3.137,197,14.06,14.16,0,0,50.72,58.38,33.47,35.31
"2016-10-19 22:40:00",258245,0.016,349.1,13,92,0,0,868.0195,0,-3.126,3.137,192,14.06,14.17,0.1781084,0,50.66,58.38,33.46,35.31
"2016-10-19 22:50:00",258246,0.195,122.2,12.99,92.5,0,0,867.9289,0,-2.927,3.136,193,14.06,14.18,0.07579082,0,50.66,58.38,33.46,35.31
"2016-10-19 23:00:00",258247,0.256,100.9,12.92,93.3,0,0,868.1354,0,-1.88,3.126,214,14.06,14.19,0,0,50.72,58.32,33.47,35.29
"2016-10-19 23:10:00",258248,0.365,120.5,12.94,93.4,0,0,868.1606,0,-1.825,3.125,210,14.05,14.19,0.1515816,0,50.66,58.32,33.46,35.29
"2016-10-19 23:20:00",258249,0.13,93.8,12.96,93.5,0,0,868.0068,0,-1.874,3.125,214,14.01,14.19,0.1326339,0,50.66,58.32,33.46,35.29
"2016-10-19 23:30:00",258250,0.052,120.7,13.05,92.5,0,0,867.9921,0,-1.771,3.124,211,13.98,14.19,0.0644222,0,50.66,58.32,33.46,35.29
"2016-10-19 23:40:00",258251,0.116,129.6,12.99,92.2,0,0,867.9121,0,-2.005,3.127,200,13.97,14.19,0,0,50.66,58.32,33.46,35.29
"2016-10-19 23:50:00",258252,0.441,124.9,12.82,92.5,0,0,867.9121,0,-1.518,3.122,214,13.98,14.19,0.02652679,0,50.66,58.32,33.46,35.29
